[[{"header":{"parameterUnit":"m.s-1","parameterCategory":1,"la1":30.2991,"la2":30.254,"lo1":-89.0895,"lo2":-89.0444,"dy":0.0017,"dx":0.0017,"nx":28,"ny":28,"refTime":"2025-06-07T03:00:00:Z","depth":0,"parameterNumber":2,"parameterNumberName":"U-component_of_WINDS"},"data":[0,0,0,0,0,0,0,0,0,0,0,0,0,0,0,0,0,0,0,0,0,0,0,0,0,0,0,0,0,0,0,0,0,0,0,0,0,0,0,0,0,0,0,0,0,0,0,0,0,0,0,0,0,0,0,0,0,0,5.0522,5.0524,0,5.065,5.0651,5.0653,5.0611,5.0608,5.0605,5.0602,5.0733,5.0739,5.0745,0,0,0,0,0,0,0,0,0,0,0,0,0,5.0239,5.0244,5.0522,5.0524,5.0525,5.065,5.0651,5.0653,5.0611,5.0608,5.0604,5.0601,5.0731,5.0738,5.0745,0,0,0,0,0,0,0,0,0,0,0,0,0,5.0364,5.0246,5.0522,5.0519,5.052,5.0649,5.0652,5.0654,5.0612,5.0608,5.0603,5.06,5.0728,5.0737,5.0746,5.0885,0,0,5.0774,5.0778,0,0,0,0,0,0,0,0,5.0357,5.0374,5.0518,5.052,5.0521,5.061,5.0599,5.0731,5.0613,5.0577,5.0602,5.0598,5.0695,5.0707,5.074,5.0891,5.0897,5.0775,5.078,5.0784,5.0787,0,0,0,0,0,0,0,5.0348,5.0369,5.0573,5.052,5.0522,5.0511,5.0524,5.0624,5.0658,5.058,5.0577,5.0593,5.0695,5.0731,5.0743,5.0899,5.0774,5.0782,5.0788,5.0792,5.1166,5.117,0,0,0,0,0,0,5.0339,5.0362,5.0569,5.0576,5.0427,5.0519,5.0534,5.0586,5.0657,5.0663,5.0596,5.059,5.0718,5.0732,5.0747,5.091,5.0784,5.0792,5.0798,5.1161,5.1167,5.1172,0,0,0,0,0,0,5.0333,5.0358,5.0563,5.0468,5.0494,5.0529,5.0587,5.059,5.0626,5.0669,5.0675,5.0627,5.0715,5.0734,5.085,5.0914,5.0797,5.0805,5.1156,5.1163,5.1169,5.1241,0,0,0,0,0,0,5.0325,5.0356,5.041,5.047,5.0499,5.0665,5.0591,5.0596,5.0642,5.0636,5.0699,5.0706,5.0713,5.0837,5.0859,5.0925,5.0812,5.115,5.1159,5.1167,5.1233,5.1249,5.1263,0,0,0,0,0,5.0315,5.0426,5.0413,5.0438,5.0567,5.0669,5.0686,5.0692,5.0648,5.0701,5.0728,5.0704,5.0905,5.0849,5.0874,5.0943,5.1146,5.1157,5.1166,5.1226,5.1246,5.1263,0,0,0,0,0,0,5.0373,5.0434,5.042,5.0554,5.0606,5.0662,5.073,5.0714,5.078,5.0771,5.0777,5.0791,5.0909,5.0939,5.0875,5.1079,5.1019,5.1034,5.1055,5.1075,5.109,5.1079,5.0819,0,0,0,0,0,5.0401,5.0479,5.0528,5.0641,5.0669,5.0695,5.074,5.074,5.0795,5.0817,5.0852,5.0906,5.0981,5.103,5.1102,5.1238,5.1249,5.1298,5.1313,5.1325,5.1338,5.1407,5.1428,5.1205,5.1205,5.1205,0,0,5.046,5.0503,5.0552,5.0654,5.0695,5.0774,5.0714,5.0802,5.086,5.083,5.094,5.0969,5.1029,5.1154,5.1211,5.1182,5.1402,5.1338,5.1348,5.1353,5.142,5.1441,5.146,5.1212,5.1211,5.1209,0,0,5.0607,5.0649,5.0746,5.0788,5.085,5.0867,5.089,5.0948,5.0965,5.1076,5.1054,5.1124,5.1254,5.1296,5.1335,5.1496,5.1474,5.1519,5.1597,5.1666,5.1683,5.1699,5.1752,5.1772,5.1532,5.1533,5.1533,0,5.0672,5.0791,5.0798,5.0886,5.093,5.0907,5.1003,5.1044,5.1127,5.1157,5.1123,5.1283,5.1322,5.1455,5.1494,5.1528,5.1552,5.1511,5.168,5.1696,5.171,5.1761,5.1782,5.1537,5.1537,5.1536,5.1536,0,5.0866,5.0949,5.102,5.1099,5.1151,5.1244,5.1262,5.1314,5.131,5.1329,5.1441,5.1487,5.1565,5.1598,5.1596,5.173,5.1709,5.1679,5.1617,5.1736,5.1784,5.1804,5.1544,5.1542,5.1541,5.154,0,0,5.1052,5.1132,5.1158,5.1191,5.1258,5.1322,5.1412,5.1489,5.1531,5.159,5.1663,5.1773,5.1743,5.1787,5.1789,5.185,5.1969,5.1811,5.1812,5.1835,5.2115,5.2134,5.2157,5.1957,5.196,5.1964,5.2108,0,5.1201,5.1359,5.1366,5.1509,5.1584,5.1563,5.1641,5.1689,5.171,5.1775,5.1798,5.1874,5.1832,5.1857,5.1917,5.1942,5.2024,5.1932,5.2022,5.2025,5.2003,5.2183,5.2205,5.2339,5.2127,5.2131,5.2133,0,5.1396,5.1458,5.1608,5.1661,5.1693,5.1763,5.1831,5.1896,5.1949,5.196,5.2008,5.2001,5.2091,5.2029,5.2151,5.2088,5.2126,5.2144,5.2149,5.2154,5.2083,5.2189,5.2383,5.2401,5.2163,5.2161,5.2159,0,5.151,5.1632,5.1737,5.1767,5.1833,5.1882,5.1912,5.1962,5.2006,5.2067,5.2095,5.2166,5.2203,5.2257,5.2268,5.2223,5.239,5.233,5.2398,5.2398,5.2431,5.2428,5.2629,5.2463,5.2462,5.2462,5.2461,0,5.1673,5.1765,5.1788,5.1852,5.1954,5.1961,5.2061,5.2087,5.2131,5.2198,5.2186,5.2249,5.2262,5.2327,5.2337,5.2434,5.2453,5.2462,5.2462,5.246,5.2459,5.2482,5.2471,5.2467,5.2466,5.2465,5.2464,0,5.1817,5.1837,5.1949,5.2001,5.2017,5.2089,5.2133,5.2193,5.2212,5.2297,5.2318,5.2347,5.2423,5.244,5.2532,5.2538,5.2652,5.2646,5.2633,5.2631,5.2697,5.2689,5.2917,5.2945,5.2764,5.2766,5.2767,0,5.1917,5.1987,5.2047,5.2091,5.2122,5.2194,5.2239,5.2249,5.2296,5.2361,5.2413,5.2487,5.2547,5.2669,5.2698,5.2767,5.2759,5.2834,5.2769,5.2764,5.2755,5.2749,5.2754,5.2845,5.2847,5.2849,5.285,0,5.2093,5.2098,5.2164,5.2232,5.2286,5.234,5.2392,5.2429,5.2445,5.2498,5.2576,5.2622,5.2714,5.2787,5.2855,5.2884,5.2869,5.2871,5.289,5.2886,5.2874,5.2877,5.2662,5.2865,5.2863,5.2862,5.2862,5.2861,5.2215,5.2274,5.2324,5.2397,5.2437,5.2485,5.2543,5.2568,5.2633,5.2708,5.271,5.2794,5.2843,5.2933,5.2967,5.3031,5.3007,5.3035,5.3042,5.3047,5.3051,5.2868,5.3044,5.3043,5.3043,5.3043,5.3042,0,5.2385,5.2416,5.2483,5.2555,5.2611,5.2593,5.2649,5.2696,5.277,5.2818,5.2876,5.2963,5.3034,5.3068,5.3137,5.3181,5.3176,5.3198,5.3193,5.3199,5.307,5.3045,5.3201,5.3201,5.3201,5.3201,5.3201,5.3201,5.248,5.2578,5.259,5.2707,5.2737,5.2818,5.2851,5.2894,5.2932,5.3029,5.3088,5.311,5.3151,5.3222,5.3285,5.3293,5.3317,5.3343,5.3347,5.3225,5.3209,5.3193,5.3169,5.3349,5.3349,5.347,5.3471,5.3472]},{"header":{"parameterUnit":"m.s-1","parameterCategory":1,"la1":30.2991,"la2":30.254,"lo1":-89.0895,"lo2":-89.0444,"dy":0.0017,"dx":0.0017,"nx":28,"ny":28,"refTime":"2025-06-07T03:00:00:Z","depth":0,"parameterNumber":3,"parameterNumberName":"V-component_of_WINDS"},"data":[0,0,0,0,0,0,0,0,0,0,0,0,0,0,0,0,0,0,0,0,0,0,0,0,0,0,0,0,0,0,0,0,0,0,0,0,0,0,0,0,0,0,0,0,0,0,0,0,0,0,0,0,0,0,0,0,0,0,3.7067,3.7068,0,3.719,3.7191,3.7193,3.7189,3.7187,3.7185,3.7184,3.7306,3.7311,3.7316,0,0,0,0,0,0,0,0,0,0,0,0,0,3.6822,3.6827,3.7066,3.7068,3.707,3.719,3.7192,3.7193,3.7189,3.7187,3.7185,3.7183,3.7305,3.731,3.7316,0,0,0,0,0,0,0,0,0,0,0,0,0,3.6935,3.6828,3.7066,3.7082,3.7085,3.7189,3.7192,3.7194,3.7189,3.7187,3.7184,3.7182,3.7303,3.731,3.7317,3.7413,0,0,3.7339,3.7342,0,0,0,0,0,0,0,0,3.6929,3.6944,3.7078,3.7081,3.7084,3.7171,3.715,3.7267,3.719,3.7149,3.7183,3.7181,3.7263,3.7274,3.7302,3.7419,3.7424,3.734,3.7344,3.7348,3.735,0,0,0,0,0,0,0,3.6921,3.6939,3.7115,3.708,3.7084,3.7081,3.7095,3.7172,3.7219,3.7153,3.7153,3.7168,3.7264,3.7295,3.7305,3.7426,3.734,3.7346,3.7351,3.7354,3.7625,3.7628,0,0,0,0,0,0,3.691,3.6932,3.7111,3.7119,3.6999,3.7088,3.7103,3.7146,3.7218,3.7227,3.717,3.7167,3.7284,3.7297,3.7309,3.7425,3.7347,3.7354,3.7358,3.7622,3.7626,3.7629,0,0,0,0,0,0,3.6905,3.6926,3.7106,3.7026,3.7048,3.7095,3.7143,3.715,3.7181,3.7231,3.7239,3.7193,3.7283,3.7299,3.7387,3.743,3.7358,3.7364,3.7619,3.7623,3.7627,3.7659,0,0,0,0,0,0,3.6898,3.6925,3.6963,3.7027,3.7053,3.7184,3.7146,3.7154,3.7194,3.7191,3.7255,3.7263,3.7282,3.7376,3.7394,3.7438,3.737,3.7615,3.7621,3.7626,3.7654,3.7664,3.7672,0,0,0,0,0,3.689,3.6966,3.6965,3.6986,3.7102,3.7186,3.7201,3.7222,3.7197,3.7235,3.7267,3.7261,3.7422,3.7385,3.7406,3.7452,3.7613,3.7619,3.7626,3.765,3.7662,3.7672,0,0,0,0,0,0,3.6906,3.6975,3.6974,3.7074,3.7125,3.7185,3.7234,3.7234,3.7291,3.7286,3.7309,3.7323,3.7411,3.7441,3.7398,3.7548,3.7514,3.7525,3.7526,3.7537,3.7546,3.7537,3.7376,0,0,0,0,0,3.6921,3.6985,3.7042,3.7125,3.715,3.7188,3.7225,3.7237,3.7289,3.731,3.7349,3.7399,3.746,3.75,3.756,3.7658,3.7671,3.77,3.7709,3.7716,3.7725,3.7777,3.779,3.765,3.765,3.765,0,0,3.6953,3.6999,3.7038,3.7129,3.7169,3.7233,3.7206,3.7275,3.7322,3.732,3.7406,3.7436,3.7492,3.7586,3.7629,3.7613,3.7766,3.7724,3.7729,3.7735,3.7785,3.7798,3.781,3.7654,3.7653,3.7653,0,0,3.7044,3.7086,3.7159,3.72,3.7261,3.7286,3.7303,3.7364,3.7384,3.747,3.747,3.7525,3.7632,3.7672,3.7706,3.781,3.7806,3.7829,3.7875,3.7925,3.7936,3.7946,3.7982,3.7995,3.7838,3.7838,3.7838,0,3.7076,3.7175,3.7196,3.7266,3.7305,3.7307,3.738,3.7418,3.7495,3.7521,3.7503,3.7635,3.7674,3.7775,3.7801,3.7829,3.7848,3.7822,3.7933,3.7943,3.7953,3.7987,3.8001,3.784,3.784,3.784,3.7839,0,3.721,3.7278,3.7329,3.7404,3.7449,3.752,3.7551,3.7593,3.7601,3.7626,3.7713,3.7759,3.7827,3.7852,3.786,3.7955,3.7943,3.7929,3.7895,3.7968,3.8001,3.8014,3.7843,3.7843,3.7842,3.7841,0,0,3.7316,3.7401,3.742,3.7453,3.752,3.7572,3.7642,3.771,3.7745,3.7798,3.7856,3.7945,3.7932,3.7971,3.7983,3.8027,3.8105,3.8007,3.8009,3.8023,3.821,3.822,3.8235,3.8103,3.8105,3.8108,3.8205,0,3.7413,3.7539,3.756,3.7669,3.7731,3.7733,3.7793,3.784,3.7865,3.792,3.7947,3.801,3.7989,3.8012,3.8056,3.8086,3.8143,3.808,3.8155,3.8158,3.8141,3.8252,3.8263,3.8353,3.8218,3.822,3.8222,0,3.7544,3.7601,3.7717,3.7774,3.7801,3.7855,3.7918,3.7971,3.8023,3.8038,3.808,3.8087,3.8157,3.812,3.8217,3.8173,3.8205,3.8224,3.8228,3.8236,3.8194,3.8262,3.8383,3.8396,3.8242,3.8241,3.8239,0,3.7608,3.7713,3.7796,3.7824,3.7894,3.7931,3.7962,3.8012,3.805,3.8104,3.8129,3.8191,3.8224,3.827,3.8292,3.8264,3.8387,3.8352,3.84,3.8399,3.8425,3.8423,3.8552,3.8447,3.8447,3.8447,3.8446,0,3.7714,3.7784,3.7825,3.7876,3.7954,3.7976,3.8053,3.8082,3.8126,3.8181,3.8185,3.8237,3.8263,3.8317,3.8335,3.8411,3.8426,3.8439,3.8442,3.8438,3.8436,3.8459,3.8453,3.845,3.8449,3.8449,3.8448,0,3.7799,3.7829,3.7919,3.7977,3.7993,3.8048,3.8097,3.8145,3.817,3.8239,3.8256,3.8295,3.8359,3.8385,3.8464,3.8475,3.8563,3.8562,3.8546,3.8546,3.8592,3.8587,3.874,3.876,3.8642,3.8643,3.8644,0,3.7864,3.7919,3.7982,3.802,3.8052,3.8113,3.8152,3.8175,3.8216,3.8279,3.8319,3.8383,3.8436,3.8538,3.8572,3.8631,3.8631,3.8681,3.864,3.8634,3.8631,3.8627,3.8632,3.8688,3.8689,3.869,3.8691,0,3.7977,3.7989,3.8046,3.8109,3.8156,3.8206,3.8255,3.8285,3.8316,3.8361,3.8427,3.8468,3.8548,3.8611,3.8672,3.8702,3.8701,3.8703,3.8717,3.8713,3.8701,3.8707,3.8565,3.8699,3.8699,3.8698,3.8697,3.8697,3.8053,3.8101,3.8153,3.8217,3.8256,3.8301,3.8349,3.8379,3.8435,3.8503,3.8513,3.8583,3.8632,3.8714,3.8746,3.88,3.8787,3.8808,3.8813,3.8817,3.882,3.8693,3.8811,3.8811,3.8811,3.8811,3.881,0,3.8165,3.8198,3.8257,3.8325,3.8374,3.837,3.8424,3.8465,3.8527,3.8573,3.8625,3.87,3.8761,3.8799,3.886,3.8896,3.8897,3.8911,3.8908,3.8914,3.8828,3.881,3.8909,3.8909,3.8909,3.8909,3.8909,3.8909,3.8229,3.8309,3.8327,3.8426,3.8458,3.8528,3.8559,3.86,3.8636,3.872,3.8772,3.8796,3.8839,3.8902,3.8957,3.8967,3.8988,3.9003,3.9012,3.8931,3.892,3.8911,3.8893,3.9008,3.9008,3.9093,3.9094,3.9094]}]]